|
|
Asteroid 2011 EE17
(Preview)
Orbital elements: 2011 EE17 Earth MOID = 0.0344 AU Epoch 2011 Feb. 8.0 TT = JDT 2455600.5 MPC M 266.37181 (2000.0) P Q n 0.81079003 Peri. 94.69451 -0.11071436 +0.99180703 a 1.1390176 Node 168.35544 -0.99009940 -0.10450223 e 0.2412958 Incl. 18.40495 -0.08628734 -0.07347171 P 1.22 H 22.6 G 0.15 U 8 M...
|
Blobrana
|
1
|
|
|
|
|
Asteroid 2011 EY11
(Preview)
Orbital elements: 2011 EY11 Earth MOID = 0.0006 AU Epoch 2011 Feb. 28.0 TT = JDT 2455620.5 MPC M 326.32244 (2000.0) P Q n 0.62655532 Peri. 241.37244 -0.67395712 +0.73744323 a 1.3525804 Node 345.97618 -0.59787692 -0.57963967 e 0.3685331 Incl. 10.52489 -0.43396427 -0.34669199 P 1.57 H 28.3 G 0.15 F...
|
Blobrana
|
2
|
|
|
|
|
Asteroid 2011 ED12
(Preview)
Orbital elements: 2011 ED12 Earth MOID = 0.0104 AU Epoch 2011 Feb. 8.0 TT = JDT 2455600.5 MPC M 23.69999 (2000.0) P Q n 0.85880859 Peri. 115.00022 -0.28254594 -0.95923015 a 1.0961546 Node 351.40378 +0.86306481 -0.25114456 e 0.1352399 Incl. 2.58130 +0.41867281 -0.12962999 P 1.15 H 26.7 G 0.15 U 7 MP...
|
Blobrana
|
1
|
|
|
|
|
Asteroid 2011 EA17
(Preview)
Orbital elements: 2011 EA17 Epoch 2011 Feb. 8.0 TT = JDT 2455600.5 MPC M 353.34712 (2000.0) P Q n 0.19981267 Peri. 12.49830 -0.97982909 -0.08629356 a 2.8977041 Node 159.70755 +0.10681137 -0.98846130 e 0.5349708 Incl. 31.31350 +0.16889724 +0.12448967 P 4.93 H 20.9 G 0.15 U 9 MPEC 2011 - E36
|
Blobrana
|
0
|
|
|
|
|
Asteroid 2011 EF15
(Preview)
Orbital elements: 2011 EF15 Earth MOID = 0.2776 AU Epoch 2011 Feb. 8.0 TT = JDT 2455600.5 MPC M 324.78054 (2000.0) P Q n 0.26100031 Peri. 234.55070 -0.59485388 +0.80383385 a 2.4249830 Node 358.94707 -0.73584843 -0.54458995 e 0.4685904 Incl. 0.29085 -0.32353662 -0.23931764 P 3.78 H 20.0 G 0.15 U 9 M...
|
Blobrana
|
0
|
|
|
|
|
Asteroid 1998 HK49
(Preview)
The 90 - 200 metre wide asteroid 1998 HK49 will make a close pass (53.1 lunar distances, 0.1364 AU), travelling at 5.37 km/second, to the Earth-Moon system on the 6th March, 2011 @ 07:49 UT ±00:01. See more The Lunar Distance (LD), the distance between Earth and the Moon, equals 384,401 km, (or 0.0025...
|
Blobrana
|
0
|
|
|
|
|
Asteroid 2011 EB12
(Preview)
Orbital elements: 2011 EB12 Earth MOID = 0.2294 AU Epoch 2011 Feb. 8.0 TT = JDT 2455600.5 MPC M 143.30590 (2000.0) P Q n 1.01370183 Peri. 0.50624 +0.97201583 +0.19544677 a 0.9814373 Node 345.98942 -0.21737843 +0.53800096 e 0.2446587 Incl. 32.56982 -0.08906094 +0.81997288 P 0.97 H 21.1 G 0.15 U 9 MP...
|
Blobrana
|
0
|
|
|
|
|
Asteroid 2011 EN11
(Preview)
Orbital elements: 2011 EN11 Earth MOID = 0.0013 AU Epoch 2011 Feb. 8.0 TT = JDT 2455600.5 MPC M 0.84487 (2000.0) P Q n 0.25350568 Peri. 325.37376 -0.58748668 -0.80906754 a 2.4725453 Node 160.58880 +0.75316825 -0.55408618 e 0.6289415 Incl. 2.82932 +0.29596788 -0.19595466 P 3.89 H 27.9 G 0.15 U 7 MPE...
|
Blobrana
|
1
|
|
|
|
|
Asteroid 2011 EL11
(Preview)
Orbital elements: 2011 EL11 PHA, Earth MOID = 0.0164 AU Epoch 2011 Feb. 8.0 TT = JDT 2455600.5 MPC M 40.82604 (2000.0) P Q n 0.38727440 Peri. 77.05354 +0.85258261 -0.52023988 a 1.8640470 Node 314.26903 +0.44864790 +0.77725476 e 0.6770586 Incl. 3.96639 +0.26798872 +0.35387216 P 2.54 H 19.5 G 0.15 U...
|
Blobrana
|
0
|
|
|
|
|
Asteroid 2011 EB7
(Preview)
Orbital elements: 2011 EB7 Earth MOID = 0.1603 AU Epoch 2011 Feb. 8.0 TT = JDT 2455600.5 MPC M 37.92420 (2000.0) P Q n 0.39596388 Peri. 263.98393 +0.34369103 -0.93846209 a 1.8366751 Node 165.76957 +0.90715907 +0.32239011 e 0.4193273 Incl. 7.98257 +0.24277335 +0.12390937 P 2.49 H 20.9 G 0.15 U 9 MPE...
|
Blobrana
|
0
|
|
|
|
|
Asteroid 2008 MB5
(Preview)
Orbital elements: 2008 MB5 Earth MOID = 0.1351 AU Epoch 2011 Feb. 8.0 TT = JDT 2455600.5 MPC M 126.67763 (2000.0) P Q n 0.57776925 Peri. 278.54703 +0.77467029 -0.54818669 a 1.4276873 Node 115.27518 +0.62351583 +0.74525831 e 0.3638499 Incl. 20.40265 -0.10542271 +0.37958057 P 1.71 H 19.2 G 0.15 U 2 M...
|
Blobrana
|
0
|
|
|
|
|
Asteroid 2011 EV4
(Preview)
Orbital elements: 2011 EV4 Earth MOID = 0.0430 AU Epoch 2011 Feb. 8.0 TT = JDT 2455600.5 MPC M 353.00494 (2000.0) P Q n 0.33403648 Peri. 356.78959 -0.93250156 -0.35685799 a 2.0571855 Node 161.99382 +0.33524230 -0.91253337 e 0.4975708 Incl. 10.36507 +0.13436308 -0.19983801 P 2.95 H 26.6 G 0.15 U 8 M...
|
Blobrana
|
0
|
|
|
|
|
Asteroid 2011 ET4
(Preview)
Orbital elements: 2011 ET4 Earth MOID = 0.1809 AU Epoch 2011 Feb. 8.0 TT = JDT 2455600.5 MPC M 2.68404 (2000.0) P Q n 0.47283683 Peri. 149.75132 -0.75257634 -0.64883133 a 1.6317809 Node 347.67763 +0.44731051 -0.37837178 e 0.3011313 Incl. 31.79976 +0.48326201 -0.66019142 P 2.08 H 21.0 G 0.15 U 8 MPE...
|
Blobrana
|
0
|
|
|
|
|
Asteroid 2000 EB14
(Preview)
Orbital elements: 2000 EB14 Earth MOID = 0.0307 AU Epoch 2011 Feb. 8.0 TT = JDT 2455600.5 MPC M 236.17747 (2000.0) P Q n 1.16294819 Peri. 139.58665 +0.54072913 +0.83912252 a 0.8955623 Node 162.88289 -0.81423178 +0.53973250 e 0.4955555 Incl. 11.57115 -0.21127852 +0.06754422 P 0.85 H 23.1 G 0.15 U 5...
|
Blobrana
|
0
|
|
|
|
|
Asteroid 2007 ES
(Preview)
Orbital elements: 2007 ES Earth MOID = 0.3547 AU Epoch 2011 Feb. 8.0 TT = JDT 2455600.5 MPC M 95.70954 (2000.0) P Q n 0.50120208 Peri. 19.25469 +0.96825003 +0.03353094 a 1.5696186 Node 334.55934 -0.22451419 +0.55242804 e 0.5946518 Incl. 35.21684 +0.10993294 +0.83288591 P 1.97 H 18.5 G 0.15 U 6 MPEC...
|
Blobrana
|
0
|
|
|